#timestamp,LO_Frequency,Hit,StdDev 
1459677615.1,286046996.1,N
1459677635.9,286046993.3,Y
1459677655.7,286047002.8,P
1459677675.5,286047004.2,N
1459677695.3,286047003.7,N
1459677715.2,286047004.5,N
1459677735.0,286047006.2,N
1459677735.9,286047006.2,N
1459677755.7,286047005.4,N
1459677775.6,286047007.5,N
1459677795.4,286047009.1,Y
1459677815.2,286047005.8,P
1459677835.1,286047005.1,P
1459677836.0,286047005.1,P
1459677855.8,286047006.5,Y
1459677875.6,286047000.6,P
1459677895.5,286047002.1,N
1459677915.3,286047000.1,N
1459677935.1,286046999.8,N
1459677955.9,286047003.7,N
1459677975.7,286047005.5,N
1459677995.5,286047001.4,N
1459678015.4,286047004.4,N
1459678035.2,286046999.9,N
1459678055.0,286047001.4,N
1459678055.9,286047001.4,N
1459678075.8,286047003.4,N
1459678095.6,286047005.8,Y
1459678115.4,286046999.4,P
1459678135.3,286046999.6,N
1459678155.1,286046996.6,N
1459678156.0,286046996.6,N
1459678175.8,286046996.9,N
1459678195.7,286046999.1,N
1459678215.5,286046997.8,N
1459678235.3,286046997.1,N
1459678255.1,286046997.9,N
1459678275.9,286046995.6,N
1459678295.7,286046993.3,Y
1459678315.5,286046994.9,P
1459678335.4,286046997.0,N
1459678355.2,286046997.3,N
1459678375.0,286046998.2,N
1459678375.9,286046998.2,N
1459678395.8,286046997.1,N
1459678415.6,286047000.1,N
1459678435.4,286046998.5,N
1459678455.3,286046998.0,N
1459678475.1,286046994.9,Y
1459678495.8,286046998.7,P
1459678515.7,286046998.4,P
1459678535.5,286046999.5,N
1459678555.3,286046996.5,Y
1459678575.2,286046996.9,P
1459678595.0,286046999.2,N
1459678595.9,286046999.2,N
1459678615.7,286046997.7,N
1459678635.6,286046997.0,Y
1459678655.4,286046998.8,P
1459678675.2,286046996.5,P
1459678695.1,286046999.4,N
1459678696.0,286046999.4,N
1459678715.8,286046999.5,N
1459678735.6,286047002.7,N
1459678755.5,286047004.3,N
1459678775.3,286047000.1,N
1459678795.1,286047002.1,N
1459678815.9,286047000.9,N
1459678835.7,286047002.2,N
1459678855.5,286047001.0,N
1459678875.4,286046997.5,N
1459678895.2,286046998.7,N
1459678915.0,286046998.2,N
1459678915.9,286046998.2,N
1459678935.8,286046997.1,N
1459678955.6,286046996.7,N
1459678975.4,286046997.2,N
1459678995.2,286046999.6,N
1459679015.1,286046999.6,N
1459679016.0,286046999.6,N
1459679035.8,286046994.1,Y
1459679055.7,286046994.7,P
1459679075.5,286046992.2,P
1459679095.3,286046994.1,N
1459679115.1,286046996.1,N
1459679135.9,286046994.0,N
1459679155.7,286046992.0,Y
1459679175.5,286046996.7,P
1459679195.4,286046997.2,P
1459679215.2,286046996.9,P
1459679235.0,286046999.5,N
1459679235.9,286046999.5,N
1459679255.8,286046999.2,N
1459679275.6,286047000.2,N
1459679295.4,286046999.1,N
1459679315.3,286046999.2,N
1459679335.1,286046998.7,N
1459679355.8,286047000.2,N
1459679375.7,286046998.7,N
1459679395.5,286046998.3,N
1459679415.3,286047000.5,N
1459679435.2,286046998.1,N
1459679455.9,286046997.4,N
1459679475.7,286046999.4,N
1459679495.6,286046995.0,Y
1459679515.4,286046997.8,P
1459679535.2,286046998.0,P
1459679555.1,286046995.7,P
1459679556.0,286046995.7,Y
1459679575.8,286046996.5,P
1459679595.6,286046997.1,P
1459679615.5,286047000.2,N
1459679635.3,286047003.2,N
1459679655.1,286047004.2,N
1459679675.9,286047006.7,N
1459679695.7,286047004.1,N
1459679715.5,286047002.9,N
1459679735.3,286047003.5,N
1459679755.2,286047008.4,N
1459679775.0,286047006.1,N
1459679775.9,286047006.1,N
1459679795.7,286047006.2,N
1459679815.6,286047007.1,N
1459679835.4,286047006.2,N
1459679855.2,286047006.7,N
1459679875.1,286047007.1,N
1459679876.0,286047007.1,N
1459679895.8,286047003.1,N
1459679915.6,286047003.6,N
1459679935.5,286047002.1,N
1459679955.3,286047000.8,N
1459679975.1,286047002.7,N
1459679995.9,286047001.9,N
1459680015.7,286047003.9,N
1459680035.5,286047003.3,N
1459680055.3,286047004.2,N
1459680075.2,286047002.5,N
1459680095.0,286047004.0,N
1459680095.9,286047004.0,N
1459680115.7,286047001.8,N
1459680135.6,286047001.8,N
1459680155.4,286047000.8,N
1459680175.2,286047000.0,N
1459680195.1,286046998.1,N
1459680196.0,286046998.1,N
1459680215.8,286047000.6,N
1459680235.6,286047000.8,N
1459680255.5,286046999.0,N
1459680275.3,286046999.6,N
1459680295.1,286046998.1,N
1459680315.9,286046997.7,N
1459680335.7,286046999.1,N
1459680355.5,286047000.1,N
1459680375.4,286047000.2,N
1459680395.2,286047001.2,N
1459680415.0,286047000.6,N
1459680415.9,286047000.6,N
1459680435.7,286047000.6,N
1459680455.6,286046998.3,N
1459680475.4,286046999.2,N
1459680495.2,286046995.4,N
1459680515.1,286046999.0,N
1459680516.0,286046999.0,N
1459680535.8,286046999.6,N
1459680555.6,286046999.9,N
1459680575.5,286047001.5,N
1459680595.3,286046999.9,N
1459680615.1,286047002.7,N
1459680635.9,286047003.8,N
1459680655.7,286047005.5,Y
1459680675.5,286047007.5,P
1459680695.4,286047009.2,N
1459680715.2,286047005.8,N
1459680735.0,286047002.3,N
1459680735.9,286047002.3,N
1459680755.8,286046998.5,N
1459680775.6,286046999.6,N
1459680795.4,286047001.0,N
1459680815.3,286046999.4,N
1459680835.1,286046999.2,N
1459680836.0,286046999.2,N
1459680855.8,286046996.7,N
1459680875.7,286046995.6,N
1459680895.5,286046994.0,N
1459680915.3,286046995.6,N
1459680935.1,286046998.7,N
1459680955.9,286046996.8,N
1459680975.7,286046999.6,N
1459680995.5,286047001.0,N
1459681015.4,286047003.7,N
1459681035.2,286047002.5,N
1459681055.0,286046999.9,N
1459681055.9,286046999.9,N
1459681075.8,286047003.2,N
1459681095.6,286047001.9,N
1459681115.4,286047001.5,N
1459681135.3,286047000.2,N
1459681155.1,286047002.0,N
1459681156.0,286047002.0,N
1459681175.8,286047003.9,N
1459681195.7,286046999.8,N
